Hourly Data Report for May 24, 2019

MIRAMICHI RCS
NEW BRUNSWICK
Current Station Operator: ECCC - MSC

47°00'34.000" N
65°27'54.000" W
33.00 m
8100989
71744
ACQ

Download Data

Hourly Data (May 2019)
Hourly Data Report for May 24, 2019
TIME
LST
Temp Definition
°C
Dew Point Definition
°C
Rel Hum Definition
%
Precip. Amount Definition
mm

Wind Dir Definition
10's deg

Wind Spd Definition
km/h
Visibility Definition
km
Stn Press Definition
kPa
Hmdx Definition


Wind Chill Definition


Weather Definition


00:00 7.0 2.8 75 0.0 8 9   100.91     LegendNANA
01:00 6.7 2.7 76 0.0 6 7   100.85     LegendNANA
02:00 6.6 2.9 77 0.0 5 8   100.74     LegendNANA
03:00 6.6 3.4 80 0.0 6 9   100.64     LegendNANA
04:00 6.5 4.2 85 0.0 4 6   100.60     LegendNANA
05:00 7.0 4.5 84 0.0 6 10   100.62     LegendNANA
06:00 7.4 3.4 76 0.0 5 8   100.69     LegendNANA
07:00 8.6 3.2 68 0.0 8 12   100.75     LegendNANA
08:00 10.4 3.5 62 0.0 10 9   100.82     LegendNANA
09:00 10.8 4.5 65 0.0 7 10   100.86     LegendNANA
10:00 11.6 4.6 62 0.0 6 10   100.86     LegendNANA
11:00 11.8 3.9 58 0.0 6 18   100.87     LegendNANA
12:00 12.8 3.4 53 0.0 6 20   100.87     LegendNANA
13:00 12.3 1.2 46 0.0 6 21   100.90     LegendNANA
14:00 12.8 1.9 47 0.0 8 23   100.96     LegendNANA
15:00 13.4 -0.1 39 0.0 8 21   100.96     LegendNANA
16:00 13.9 0.2 39 0.0 9 21   100.97     LegendNANA
17:00 14.0 -1.3 35 0.0 9 20   100.97     LegendNANA
18:00 13.6 -0.7 37 0.0 8 16   101.02     LegendNANA
19:00 12.6 -1.2 38 0.0 6 10   101.09     LegendNANA
20:00 10.4 -0.1 48 0.0 3 5   101.13     LegendNANA
21:00 9.1 1.7 60 0.0 4 3   101.17     LegendNANA
22:00 8.2 2.1 65 0.0 29 2   101.21     LegendNANA
23:00 5.9 2.5 79 0.0 27 5   101.21     LegendNANA

Notes on Data Quality.

Legend

  • E = Estimated
  • M = Missing
  • NA = Not Available*
  • [empty] = Indicates an unobserved value
Date modified: